﻿_id,日時,平均風速(m/s),平均風向,最大瞬間風速(m/s),最大風速時風向,気温(℃),湿度(%),10分間移動積算雨量(mm),1時間移動積算雨量(mm),日雨量(mm),累計雨量(mm)
1,2020-08-31T00:00:00,1.1,西北西,2.7,北西,27.3,75.8,0,0,0,0
2,2020-08-31T00:01:00,1,西北西,2.7,北西,27.4,75.8,0,0,0,0
3,2020-08-31T00:02:00,1,西北西,2.4,北西,27.3,75.5,0,0,0,0
4,2020-08-31T00:03:00,0.9,北西,2.4,北西,27.3,75.8,0,0,0,0
5,2020-08-31T00:04:00,0.8,北西,2.4,北西,27.2,75.8,0,0,0,0
6,2020-08-31T00:05:00,0.7,北西,2.4,北西,27.2,75.6,0,0,0,0
7,2020-08-31T00:06:00,0.7,北西,2.4,北西,27.2,75.8,0,0,0,0
8,2020-08-31T00:07:00,0.7,北北西,2.4,北西,27.2,76,0,0,0,0
9,2020-08-31T00:08:00,0.7,北北西,2.4,北西,27.1,76.4,0,0,0,0
10,2020-08-31T00:09:00,0.7,北北西,2.4,北西,27.2,76.6,0,0,0,0
11,2020-08-31T00:10:00,0.7,北北西,2.4,北西,27.2,76.4,0,0,0,0
12,2020-08-31T00:11:00,0.7,北北西,1.8,北西,27.1,76.3,0,0,0,0
13,2020-08-31T00:12:00,0.8,北西,2.2,西,27.1,76.1,0,0,0,0
14,2020-08-31T00:13:00,0.9,北西,2.2,西,27.2,75.9,0,0,0,0
15,2020-08-31T00:14:00,1,北西,2.2,西,27.2,75.9,0,0,0,0
16,2020-08-31T00:15:00,1,北西,2.2,西,27.3,75.9,0,0,0,0
17,2020-08-31T00:16:00,1.1,西北西,2.2,西,27.2,75.4,0,0,0,0
18,2020-08-31T00:17:00,1.2,西北西,2.2,西,27.2,75.2,0,0,0,0
19,2020-08-31T00:18:00,1.2,西北西,2.2,西,27.2,75.2,0,0,0,0
20,2020-08-31T00:19:00,1.1,西北西,2.2,西,27.2,75.2,0,0,0,0
21,2020-08-31T00:20:00,1.1,西北西,2.2,西,27.2,75.4,0,0,0,0
22,2020-08-31T00:21:00,1,西北西,2.2,西,27.2,75.4,0,0,0,0
23,2020-08-31T00:22:00,0.9,西北西,2.1,西北西,27.3,75.5,0,0,0,0
24,2020-08-31T00:23:00,0.8,西北西,2.1,西北西,27.2,75.9,0,0,0,0
25,2020-08-31T00:24:00,0.8,西北西,1.8,西,27.2,76.1,0,0,0,0
26,2020-08-31T00:25:00,0.8,西北西,1.8,西,27.2,76.4,0,0,0,0
27,2020-08-31T00:26:00,0.8,北西,1.8,西,27.2,76.4,0,0,0,0
28,2020-08-31T00:27:00,0.8,北西,1.7,北,27.2,76.2,0,0,0,0
29,2020-08-31T00:28:00,0.8,北西,1.7,北,27.2,76.3,0,0,0,0
30,2020-08-31T00:29:00,0.8,北西,1.7,北,27.2,76.5,0,0,0,0
31,2020-08-31T00:30:00,0.7,北西,1.7,北,27.1,76.6,0,0,0,0
32,2020-08-31T00:31:00,0.8,北西,2.3,北西,27.1,76.8,0,0,0,0
33,2020-08-31T00:32:00,0.9,北西,2.3,北西,27.1,76.7,0,0,0,0
34,2020-08-31T00:33:00,0.9,北北西,2.3,北西,27.1,76.9,0,0,0,0
35,2020-08-31T00:34:00,0.9,北北西,2.3,北西,27,76.9,0,0,0,0
36,2020-08-31T00:35:00,0.8,北西,2.3,北西,26.9,77.1,0,0,0,0
37,2020-08-31T00:36:00,0.8,北北西,2.3,北西,27.1,77.5,0,0,0,0
38,2020-08-31T00:37:00,0.7,北北西,2.3,北西,27,77.3,0,0,0,0
39,2020-08-31T00:38:00,0.7,北西,2.3,北西,27,77.4,0,0,0,0
40,2020-08-31T00:39:00,0.7,北西,2.3,北西,26.8,77.8,0,0,0,0
41,2020-08-31T00:40:00,0.8,北西,2.3,北西,26.8,78.2,0,0,0,0
42,2020-08-31T00:41:00,0.8,北西,2.3,北西,26.9,78.4,0,0,0,0
43,2020-08-31T00:42:00,0.7,北西,1.8,北北西,27,78.1,0,0,0,0
44,2020-08-31T00:43:00,0.6,北西,1.7,北西,26.9,78.1,0,0,0,0
45,2020-08-31T00:44:00,0.7,北北西,1.7,北西,26.9,78.6,0,0,0,0
46,2020-08-31T00:45:00,0.7,北北西,1.7,北西,27,78.6,0,0,0,0
47,2020-08-31T00:46:00,0.7,北,1.7,北西,27,78.6,0,0,0,0
48,2020-08-31T00:47:00,0.6,北,1.7,北西,26.9,78.3,0,0,0,0
49,2020-08-31T00:48:00,0.6,北,1.7,北西,26.9,78.4,0,0,0,0
50,2020-08-31T00:49:00,0.6,北北西,1.7,北西,26.8,78.3,0,0,0,0
51,2020-08-31T00:50:00,0.5,北北西,1.7,北西,26.8,78.4,0,0,0,0
52,2020-08-31T00:51:00,0.6,北,1.7,北西,27,78.5,0,0,0,0
53,2020-08-31T00:52:00,0.5,北北西,1.5,北北西,27,77.8,0,0,0,0
54,2020-08-31T00:53:00,0.6,北北西,1.6,西北西,26.9,77.6,0,0,0,0
55,2020-08-31T00:54:00,0.6,北西,1.6,西北西,26.8,77.6,0,0,0,0
56,2020-08-31T00:55:00,0.7,北西,1.8,北北西,27,77.9,0,0,0,0
57,2020-08-31T00:56:00,0.7,北西,1.8,北北西,26.9,77.6,0,0,0,0
58,2020-08-31T00:57:00,0.8,西北西,1.8,北北西,26.9,77.8,0,0,0,0
59,2020-08-31T00:58:00,0.9,北西,1.8,北北西,26.9,78,0,0,0,0
60,2020-08-31T00:59:00,0.9,北西,1.8,北北西,26.9,78.2,0,0,0,0
61,2020-08-31T01:00:00,0.9,北西,1.8,北北西,27,78.1,0,0,0,0
62,2020-08-31T01:01:00,0.8,北西,1.8,北北西,26.9,78,0,0,0,0
63,2020-08-31T01:02:00,0.8,北西,1.8,北北西,26.7,77.9,0,0,0,0
64,2020-08-31T01:03:00,0.9,北西,1.8,北北西,26.7,78.3,0,0,0,0
65,2020-08-31T01:04:00,0.9,北西,2,北西,26.7,78.3,0,0,0,0
66,2020-08-31T01:05:00,1,北西,2,北西,26.8,78.7,0,0,0,0
67,2020-08-31T01:06:00,1,北西,2,北西,26.7,78.4,0,0,0,0
68,2020-08-31T01:07:00,0.9,北西,2,北西,26.8,78.4,0,0,0,0
69,2020-08-31T01:08:00,0.9,北西,2,北西,26.8,78.3,0,0,0,0
70,2020-08-31T01:09:00,0.9,北西,2,北西,26.8,78,0,0,0,0
71,2020-08-31T01:10:00,1,北西,2.1,西北西,26.7,77.6,0,0,0,0
72,2020-08-31T01:11:00,1.1,北西,2.3,西北西,26.7,77.6,0,0,0,0
73,2020-08-31T01:12:00,1.2,北西,2.3,西北西,26.7,77.6,0,0,0,0
74,2020-08-31T01:13:00,1.2,北西,2.3,西北西,26.7,77.6,0,0,0,0
75,2020-08-31T01:14:00,1.2,北西,2.3,西北西,26.8,77.4,0,0,0,0
76,2020-08-31T01:15:00,1,北西,2.3,西北西,26.8,77.2,0,0,0,0
77,2020-08-31T01:16:00,1,北西,2.3,西北西,26.7,77.7,0,0,0,0
78,2020-08-31T01:17:00,1.1,北西,2.3,西北西,26.6,77.7,0,0,0,0
79,2020-08-31T01:18:00,1,北西,2.3,西北西,26.6,78.4,0,0,0,0
80,2020-08-31T01:19:00,1.1,西北西,2.3,西北西,26.6,78.3,0,0,0,0
81,2020-08-31T01:20:00,1.1,西北西,2.3,西北西,26.7,78.3,0,0,0,0
82,2020-08-31T01:21:00,1,西北西,2.1,西北西,26.7,78.4,0,0,0,0
83,2020-08-31T01:22:00,0.9,西北西,2,西北西,26.8,78.4,0,0,0,0
84,2020-08-31T01:23:00,0.9,西北西,1.9,北西,26.8,78.2,0,0,0,0
85,2020-08-31T01:24:00,0.9,西北西,1.7,西北西,26.8,78.3,0,0,0,0
86,2020-08-31T01:25:00,0.9,西北西,1.7,西北西,26.8,78,0,0,0,0
87,2020-08-31T01:26:00,0.9,西北西,1.7,西北西,26.7,77.9,0,0,0,0
88,2020-08-31T01:27:00,0.9,西北西,1.7,西北西,26.7,78.7,0,0,0,0
89,2020-08-31T01:28:00,0.9,西北西,1.7,西北西,26.7,79.1,0,0,0,0
90,2020-08-31T01:29:00,0.9,西北西,1.6,北西,26.7,79.4,0,0,0,0
91,2020-08-31T01:30:00,0.9,西北西,1.6,北西,26.7,79.7,0,0,0,0
92,2020-08-31T01:31:00,0.8,西北西,1.6,北西,26.7,79.6,0,0,0,0
93,2020-08-31T01:32:00,0.8,西北西,1.6,北西,26.7,79.5,0,0,0,0
94,2020-08-31T01:33:00,0.8,西北西,1.6,北西,26.8,79.5,0,0,0,0
95,2020-08-31T01:34:00,0.9,西北西,1.7,北西,26.7,79.6,0,0,0,0
96,2020-08-31T01:35:00,0.9,西北西,1.7,北西,26.6,79.7,0,0,0,0
97,2020-08-31T01:36:00,0.9,北西,1.7,北西,26.5,80.2,0,0,0,0
98,2020-08-31T01:37:00,1,北西,2.3,北北西,26.5,80.8,0,0,0,0
99,2020-08-31T01:38:00,1.1,北西,2.3,北北西,26.5,81,0,0,0,0
100,2020-08-31T01:39:00,1.2,北西,2.3,北北西,26.5,81.3,0,0,0,0
101,2020-08-31T01:40:00,1.2,北西,2.3,北北西,26.5,81.4,0,0,0,0
102,2020-08-31T01:41:00,1.2,北西,2.3,北北西,26.6,81.4,0,0,0,0
103,2020-08-31T01:42:00,1.3,北西,2.3,北北西,26.6,81.4,0,0,0,0
104,2020-08-31T01:43:00,1.2,北西,2.3,北北西,26.6,81.4,0,0,0,0
105,2020-08-31T01:44:00,1.1,北北西,2.3,北北西,26.5,81.3,0,0,0,0
106,2020-08-31T01:45:00,1,北北西,2.3,北北西,26.6,81.3,0,0,0,0
107,2020-08-31T01:46:00,1,北北西,2.3,北北西,26.6,81.3,0,0,0,0
108,2020-08-31T01:47:00,0.9,北北西,2.1,北北西,26.6,81,0,0,0,0
109,2020-08-31T01:48:00,0.8,北北西,1.8,北北西,26.5,81.1,0,0,0,0
110,2020-08-31T01:49:00,0.7,北北西,1.5,北西,26.5,81.2,0,0,0,0
111,2020-08-31T01:50:00,0.6,北北西,1.3,北西,26.6,81,0,0,0,0
112,2020-08-31T01:51:00,0.6,北北西,1.2,北北西,26.5,80.6,0,0,0,0
113,2020-08-31T01:52:00,0.6,北北西,1.3,北北西,26.5,80.7,0,0,0,0
114,2020-08-31T01:53:00,0.6,北北西,1.3,北北西,26.5,80.8,0,0,0,0
115,2020-08-31T01:54:00,0.6,北西,1.3,北北西,26.4,81.1,0,0,0,0
116,2020-08-31T01:55:00,0.7,北西,1.3,北北西,26.4,81.3,0,0,0,0
117,2020-08-31T01:56:00,0.7,北西,1.3,北北西,26.6,81.4,0,0,0,0
118,2020-08-31T01:57:00,0.7,北西,1.4,西北西,26.5,81.2,0,0,0,0
119,2020-08-31T01:58:00,0.7,北西,1.4,西北西,26.5,81.2,0,0,0,0
120,2020-08-31T01:59:00,0.8,北西,1.4,西北西,26.6,81.3,0,0,0,0
121,2020-08-31T02:00:00,0.8,北西,1.4,西北西,26.6,81.1,0,0,0,0
122,2020-08-31T02:01:00,0.8,北西,1.9,北西,26.5,80.4,0,0,0,0
123,2020-08-31T02:02:00,0.9,北西,1.9,北西,26.5,79.8,0,0,0,0
124,2020-08-31T02:03:00,0.8,北西,1.9,北西,26.5,79.7,0,0,0,0
125,2020-08-31T02:04:00,0.9,北西,1.9,北西,26.5,79.8,0,0,0,0
126,2020-08-31T02:05:00,0.8,北西,1.9,北西,26.6,79.7,0,0,0,0
127,2020-08-31T02:06:00,0.8,北北西,1.9,北西,26.6,79.8,0,0,0,0
128,2020-08-31T02:07:00,0.7,北北西,1.9,北西,26.6,79.9,0,0,0,0
129,2020-08-31T02:08:00,0.7,北北西,1.9,北西,26.5,80.2,0,0,0,0
130,2020-08-31T02:09:00,0.7,北北西,1.9,北西,26.5,80.5,0,0,0,0
131,2020-08-31T02:10:00,0.7,北北西,1.9,北西,26.6,80.6,0,0,0,0
132,2020-08-31T02:11:00,0.6,北北西,1.6,北北西,26.7,80.5,0,0,0,0
133,2020-08-31T02:12:00,0.5,北,1.4,北,26.7,80,0,0,0,0
134,2020-08-31T02:13:00,0.5,北,1.4,北,26.6,79.7,0,0,0,0
135,2020-08-31T02:14:00,0.5,北北西,1.4,北,26.5,79.8,0,0,0,0
136,2020-08-31T02:15:00,0.5,北北西,1.4,北,26.4,80.1,0,0,0,0
137,2020-08-31T02:16:00,0.5,北北西,1.4,北,26.4,80.5,0,0,0,0
138,2020-08-31T02:17:00,0.5,北西,1.4,北,26.4,80.6,0,0,0,0
139,2020-08-31T02:18:00,0.6,北西,1.7,北西,26.4,80.3,0,0,0,0
140,2020-08-31T02:19:00,0.7,北西,1.7,北西,26.5,80.2,0,0,0,0
141,2020-08-31T02:20:00,0.6,北西,1.7,北西,26.4,79.9,0,0,0,0
142,2020-08-31T02:21:00,0.6,北西,1.7,北西,26.5,79.8,0,0,0,0
143,2020-08-31T02:22:00,0.6,北西,1.7,北西,26.4,79.3,0,0,0,0
144,2020-08-31T02:23:00,0.6,北西,1.7,北西,26.4,79.3,0,0,0,0
145,2020-08-31T02:24:00,0.6,北西,1.7,北西,26.4,79,0,0,0,0
146,2020-08-31T02:25:00,0.7,北西,1.7,北西,26.3,78.9,0,0,0,0
147,2020-08-31T02:26:00,0.7,北西,1.7,北西,26.3,79.1,0,0,0,0
148,2020-08-31T02:27:00,0.8,北西,2,西北西,26.2,79,0,0,0,0
149,2020-08-31T02:28:00,0.8,北西,2.1,西北西,26.2,79.2,0,0,0,0
150,2020-08-31T02:29:00,0.8,北西,2.1,西北西,26.2,79.5,0,0,0,0
151,2020-08-31T02:30:00,0.8,西北西,2.1,西北西,26.2,79.5,0,0,0,0
152,2020-08-31T02:31:00,0.8,北西,2.1,西北西,26.2,79.7,0,0,0,0
153,2020-08-31T02:32:00,0.9,西北西,2.1,西北西,26.2,79.6,0,0,0,0
154,2020-08-31T02:33:00,1,北西,2.1,西北西,26.2,79.6,0,0,0,0
155,2020-08-31T02:34:00,0.9,北西,2.1,西北西,26.2,79.5,0,0,0,0
156,2020-08-31T02:35:00,0.9,北西,2.1,西北西,26.2,79.6,0,0,0,0
157,2020-08-31T02:36:00,0.9,北西,2.1,西北西,26.2,79.6,0,0,0,0
158,2020-08-31T02:37:00,0.9,北西,2.1,西北西,26.2,79.6,0,0,0,0
159,2020-08-31T02:38:00,0.9,北西,1.8,西北西,26.2,79.6,0,0,0,0
160,2020-08-31T02:39:00,0.9,北西,1.8,西北西,26.2,79.9,0,0,0,0
161,2020-08-31T02:40:00,0.9,北西,1.8,西北西,26.1,80.7,0,0,0,0
162,2020-08-31T02:41:00,0.9,北西,1.8,西北西,26.2,81.5,0,0,0,0
163,2020-08-31T02:42:00,0.8,北西,1.6,西北西,26.2,81.5,0,0,0,0
164,2020-08-31T02:43:00,0.8,北西,1.4,北北西,26.2,81.3,0,0,0,0
165,2020-08-31T02:44:00,0.8,北西,1.4,北北西,26.1,81.1,0,0,0,0
166,2020-08-31T02:45:00,0.8,北西,1.4,北北西,26.1,81.1,0,0,0,0
167,2020-08-31T02:46:00,0.7,北西,1.3,北西,26.1,81,0,0,0,0
168,2020-08-31T02:47:00,0.7,北西,1.3,北西,26.3,80.6,0,0,0,0
169,2020-08-31T02:48:00,0.7,北西,1.3,北西,26.2,79.9,0,0,0,0
170,2020-08-31T02:49:00,0.6,北北西,1.1,西北西,26.1,79.9,0,0,0,0
171,2020-08-31T02:50:00,0.5,北北西,1.1,西北西,26.1,80.1,0,0,0,0
172,2020-08-31T02:51:00,0.5,北北西,1,北,26.1,80.1,0,0,0,0
173,2020-08-31T02:52:00,0.4,北,1,北,26.2,80.2,0,0,0,0
174,2020-08-31T02:53:00,0.4,北,1,北,26.3,80.1,0,0,0,0
175,2020-08-31T02:54:00,0.4,北北東,1,北,26.2,79.8,0,0,0,0
176,2020-08-31T02:55:00,0.3,北東,1,北,26.2,79.9,0,0,0,0
177,2020-08-31T02:56:00,0.3,北東,1,北,26.2,79.8,0,0,0,0
178,2020-08-31T02:57:00,0.2,静穏,0.7,北北東,26.2,80,0,0,0,0
179,2020-08-31T02:58:00,0.2,静穏,0.6,西北西,26.1,80,0,0,0,0
180,2020-08-31T02:59:00,0.3,北北東,0.7,西,25.9,80,0,0,0,0
181,2020-08-31T03:00:00,0.3,北北東,0.7,西,26.1,80.5,0,0,0,0
182,2020-08-31T03:01:00,0.3,北,0.7,西,26,80.3,0,0,0,0
183,2020-08-31T03:02:00,0.3,北,0.7,西,26.1,80.4,0,0,0,0
184,2020-08-31T03:03:00,0.3,北北西,0.7,西,26.1,80.4,0,0,0,0
185,2020-08-31T03:04:00,0.3,北西,0.7,西,26.1,80.5,0,0,0,0
186,2020-08-31T03:05:00,0.3,北西,0.8,北西,26.1,80.6,0,0,0,0
187,2020-08-31T03:06:00,0.4,北西,1,北北西,26.1,80.5,0,0,0,0
188,2020-08-31T03:07:00,0.4,北西,1,北北西,26.1,80.5,0,0,0,0
189,2020-08-31T03:08:00,0.5,北西,1,北北西,26.1,80.5,0,0,0,0
190,2020-08-31T03:09:00,0.5,北西,1,北北西,26.1,80.4,0,0,0,0
191,2020-08-31T03:10:00,0.5,北西,1,北北西,26,80.5,0,0,0,0
192,2020-08-31T03:11:00,0.5,北西,1,北北西,26,80.7,0,0,0,0
193,2020-08-31T03:12:00,0.5,北西,1,北北西,26,80.8,0,0,0,0
194,2020-08-31T03:13:00,0.5,北西,1,北北西,25.9,80.8,0,0,0,0
195,2020-08-31T03:14:00,0.5,北西,1,北北西,26,81,0,0,0,0
196,2020-08-31T03:15:00,0.4,北西,1,北北西,26,81.1,0,0,0,0
197,2020-08-31T03:16:00,0.4,北北西,0.9,北西,25.9,81,0,0,0,0
198,2020-08-31T03:17:00,0.4,北北西,0.9,北西,25.9,81.2,0,0,0,0
199,2020-08-31T03:18:00,0.3,北,0.9,北西,26,81.5,0,0,0,0
200,2020-08-31T03:19:00,0.3,北北東,0.9,北西,26.1,81.6,0,0,0,0
201,2020-08-31T03:20:00,0.3,東北東,0.8,東北東,25.9,81.7,0,0,0,0
202,2020-08-31T03:21:00,0.2,静穏,0.8,東北東,25.8,82,0,0,0,0
203,2020-08-31T03:22:00,0.2,静穏,0.8,東北東,25.8,82.6,0,0,0,0
204,2020-08-31T03:23:00,0.2,静穏,0.8,東北東,25.8,83.4,0,0,0,0
205,2020-08-31T03:24:00,0.3,東,0.8,東北東,25.9,83.9,0,0,0,0
206,2020-08-31T03:25:00,0.3,北北東,0.8,東北東,25.8,83.8,0,0,0,0
207,2020-08-31T03:26:00,0.3,北北西,0.9,北北西,25.8,83.9,0,0,0,0
208,2020-08-31T03:27:00,0.3,北西,0.9,北北西,25.8,83.7,0,0,0,0
209,2020-08-31T03:28:00,0.3,北西,0.9,北北西,25.8,83.7,0,0,0,0
210,2020-08-31T03:29:00,0.3,西北西,0.9,北北西,25.8,83.6,0,0,0,0
211,2020-08-31T03:30:00,0.3,西北西,0.9,北北西,25.7,83.4,0,0,0,0
212,2020-08-31T03:31:00,0.3,北西,0.9,北北西,25.7,83.5,0,0,0,0
213,2020-08-31T03:32:00,0.3,北西,0.9,北北西,25.7,83.8,0,0,0,0
214,2020-08-31T03:33:00,0.3,北西,0.9,北北西,25.7,84.1,0,0,0,0
215,2020-08-31T03:34:00,0.3,北西,0.9,北北西,25.8,84.6,0,0,0,0
216,2020-08-31T03:35:00,0.3,西北西,0.9,北北西,25.8,84.4,0,0,0,0
217,2020-08-31T03:36:00,0.3,西北西,0.8,北西,25.7,84.4,0,0,0,0
218,2020-08-31T03:37:00,0.3,西北西,0.7,北北西,25.6,84.6,0,0,0,0
219,2020-08-31T03:38:00,0.3,西,1,西,25.6,84.9,0,0,0,0
220,2020-08-31T03:39:00,0.3,西,1,西,25.6,85.3,0,0,0,0
221,2020-08-31T03:40:00,0.2,静穏,1,西,25.7,85.4,0,0,0,0
222,2020-08-31T03:41:00,0.2,静穏,1,西,25.8,85.2,0,0,0,0
223,2020-08-31T03:42:00,0.2,静穏,1,西,25.9,85,0,0,0,0
224,2020-08-31T03:43:00,0.3,西,1,西,25.8,84.4,0,0,0,0
225,2020-08-31T03:44:00,0.3,西,1,西,25.7,84.5,0,0,0,0
226,2020-08-31T03:45:00,0.2,静穏,1,西,25.7,84.6,0,0,0,0
227,2020-08-31T03:46:00,0.2,静穏,1,西,25.7,84.8,0,0,0,0
228,2020-08-31T03:47:00,0.2,静穏,1,西,25.7,84.8,0,0,0,0
229,2020-08-31T03:48:00,0.2,静穏,0.7,西,25.7,84.4,0,0,0,0
230,2020-08-31T03:49:00,0.2,静穏,0.7,西,25.6,84.2,0,0,0,0
231,2020-08-31T03:50:00,0.2,静穏,0.7,西,25.7,84.2,0,0,0,0
232,2020-08-31T03:51:00,0.2,静穏,0.7,西,25.7,83.8,0,0,0,0
233,2020-08-31T03:52:00,0.2,静穏,0.7,西,25.6,83.5,0,0,0,0
234,2020-08-31T03:53:00,0.2,静穏,0.7,西,25.6,83.8,0,0,0,0
235,2020-08-31T03:54:00,0.2,静穏,0.7,北西,25.6,84,0,0,0,0
236,2020-08-31T03:55:00,0.2,静穏,0.7,北西,25.7,84.2,0,0,0,0
237,2020-08-31T03:56:00,0.2,静穏,0.7,北西,25.7,83.8,0,0,0,0
238,2020-08-31T03:57:00,0.2,静穏,1.1,西南西,25.6,83.7,0,0,0,0
239,2020-08-31T03:58:00,0.3,西,1.4,西南西,25.5,83.2,0,0,0,0
240,2020-08-31T03:59:00,0.4,西,1.4,西南西,25.4,82.8,0,0,0,0
241,2020-08-31T04:00:00,0.4,西,1.4,西南西,25.5,83.1,0,0,0,0
242,2020-08-31T04:01:00,0.4,西,1.4,西南西,25.6,83.5,0,0,0,0
243,2020-08-31T04:02:00,0.4,西南西,1.4,西南西,25.6,83.9,0,0,0,0
244,2020-08-31T04:03:00,0.5,西,1.4,西南西,25.6,83.7,0,0,0,0
245,2020-08-31T04:04:00,0.5,西,1.4,西南西,25.5,83.9,0,0,0,0
246,2020-08-31T04:05:00,0.6,西,1.4,西南西,25.5,84.6,0,0,0,0
247,2020-08-31T04:06:00,0.6,西,1.4,西南西,25.5,84.6,0,0,0,0
248,2020-08-31T04:07:00,0.5,西,1.4,西南西,25.4,84.9,0,0,0,0
249,2020-08-31T04:08:00,0.4,西,1.3,西南西,25.3,85.4,0,0,0,0
250,2020-08-31T04:09:00,0.4,西,1.2,北西,25.4,85.3,0,0,0,0
